Weather History for Whitefield, NH

Change the Weather History Date:

Saturday, May 11, 2013

  Actual Average Record
Temperature  
Mean Temperature 62 °F -  
Max Temperature 68 °F 62 °F 82 °F (2001)
Min Temperature 57 °F 33 °F 25 °F (1999)
Degree Days  
Heating Degree Days 4    
Growing Degree Days 12 (Base 50)    
Moisture  
Dew Point 56 °F    
Average Humidity 82    
Maximum Humidity 94    
Minimum Humidity 63    
Precipitation  
Precipitation 0.56 in - - ()
Sea Level Pressure  
Sea Level Pressure 29.70 in    
Wind  
Wind Speed 3 mph (SW)    
Max Wind Speed 10 mph    
Max Gust Speed 20 mph    
Visibility 8 miles    
Events Rain    
Averages and records for this station are not official NWS values.
T = Trace of Precipitation, MM = Missing Value Source: NWS Daily Summary

Daily Weather History Graph

Daily Weather History Graph

Search for Another Location

Airport:

Trip Planner

Search our weather history database for the weather conditions in past years. The results will help you decide how hot, cold, wet, or windy it might be!

Date:

Astronomy

May. 11, 2013 Rise Set
Actual Time 5:23 AM EDT 8:02 PM EDT
Civil Twilight 4:50 AM EDT 8:35 PM EDT
Nautical Twilight 4:08 AM EDT 9:17 PM EDT
Astronomical Twilight 3:20 AM EDT 10:05 PM EDT
Moon 6:27 AM EDT (5/11) 9:41 PM EDT (5/11)
Length of Visible Light 15h 45m
Length of Day
14h 39m
Waxing Crescent, 3% of the Moon is Illuminated
May 11
Waxing Crescent
May 18
First Quarter
May 25
Full
May 31
Last Quarter
Jun 8
New

Hourly Weather History & Observations

Time (EDT) Temp. Dew Point Humidity Pressure Visibility Wind Dir Wind Speed Gust Speed Precip Events Conditions
12:52 AM 63.0 °F 54.0 °F 72% 29.84 in 10.0 mi SW 3.5 mph - N/A   Clear
1:52 AM 57.9 °F 54.0 °F 87% 29.83 in 10.0 mi NW 3.5 mph - N/A   Mostly Cloudy
2:52 AM 64.9 °F 52.0 °F 63% 29.80 in 10.0 mi South 4.6 mph - N/A   Overcast
3:52 AM 64.9 °F 52.0 °F 63% 29.76 in 10.0 mi SSE 5.8 mph - 0.00 in   Overcast
4:52 AM 62.1 °F 55.0 °F 78% 29.76 in 10.0 mi Calm Calm - 0.01 in   Overcast
5:52 AM 61.0 °F 54.0 °F 78% 29.75 in 10.0 mi Calm Calm - N/A   Overcast
6:52 AM 59.0 °F 55.0 °F 87% 29.75 in 10.0 mi Calm Calm - 0.01 in Rain Light Rain
7:19 AM 60.8 °F 55.4 °F 82% 29.75 in 2.5 mi Calm Calm - 0.03 in Rain Light Rain
7:27 AM 60.8 °F 55.4 °F 82% 29.74 in 9.0 mi Calm Calm - 0.03 in Rain Light Rain
7:52 AM 60.1 °F 55.9 °F 86% 29.73 in 7.0 mi WNW 5.8 mph - 0.03 in Rain Light Rain
8:52 AM 62.1 °F 55.9 °F 80% 29.72 in 10.0 mi Calm Calm - 0.01 in Rain Light Rain
9:52 AM 62.1 °F 55.9 °F 80% 29.71 in 8.0 mi SW 5.8 mph - 0.00 in Rain Light Rain
10:35 AM 64.4 °F 55.4 °F 73% 29.70 in 10.0 mi WSW 3.5 mph - N/A   Overcast
10:52 AM 64.9 °F 55.9 °F 73% 29.70 in 10.0 mi SW 8.1 mph - N/A   Overcast
11:13 AM 66.2 °F 55.4 °F 68% 29.70 in 10.0 mi SW 10.4 mph 19.6 mph N/A   Overcast
11:52 AM 66.9 °F 55.0 °F 66% 29.69 in 10.0 mi SSW 8.1 mph - N/A   Mostly Cloudy
12:52 PM 66.9 °F 54.0 °F 63% 29.68 in 10.0 mi WSW 5.8 mph - N/A   Overcast
1:52 PM 66.9 °F 55.0 °F 66% 29.67 in 10.0 mi SSW 4.6 mph - N/A   Overcast
2:35 PM 64.4 °F 57.2 °F 77% 29.67 in 1.8 mi Calm Calm - 0.05 in Rain Rain
2:49 PM 62.6 °F 59.0 °F 88% 29.67 in 3.0 mi SSE 4.6 mph - 0.09 in Rain Light Rain
2:52 PM 64.0 °F 59.0 °F 84% 29.66 in 6.0 mi South 3.5 mph - 0.09 in Rain Light Rain
3:06 PM 62.6 °F 59.0 °F 88% 29.67 in 1.8 mi Calm Calm - 0.04 in Rain Rain
3:16 PM 62.6 °F 59.0 °F 88% 29.67 in 1.0 mi Calm Calm - 0.10 in Rain Rain
3:18 PM 62.6 °F 59.0 °F 88% 29.67 in 1.2 mi Variable 3.5 mph - 0.10 in Rain Rain
3:31 PM 62.6 °F 60.8 °F 94% 29.67 in 1.8 mi South 3.5 mph - 0.15 in Rain Rain
3:37 PM 62.6 °F 60.8 °F 94% 29.66 in 3.0 mi SSE 3.5 mph - 0.16 in Rain Rain
3:52 PM 63.0 °F 59.0 °F 87% 29.65 in 4.0 mi Calm Calm - 0.19 in Rain Rain
4:07 PM 62.6 °F 59.0 °F 88% 29.66 in 1.8 mi Variable 3.5 mph - 0.05 in Rain Rain
4:28 PM 62.6 °F 59.0 °F 88% 29.66 in 2.5 mi Calm Calm - 0.11 in Rain Light Rain
4:35 PM 62.6 °F 59.0 °F 88% 29.65 in 4.0 mi Calm Calm - 0.12 in Rain Light Rain
4:52 PM 63.0 °F 59.0 °F 87% 29.65 in 10.0 mi Calm Calm - 0.13 in Rain Light Rain
5:52 PM 63.0 °F 59.0 °F 87% 29.65 in 10.0 mi Calm Calm - 0.05 in Rain Light Rain
6:52 PM 62.1 °F 57.9 °F 86% 29.65 in 6.0 mi Calm Calm - 0.03 in Rain Light Rain
7:52 PM 61.0 °F 57.0 °F 87% 29.66 in 10.0 mi Variable 3.5 mph - 0.01 in   Overcast
8:52 PM 61.0 °F 57.0 °F 87% 29.68 in 10.0 mi SW 4.6 mph - N/A   Overcast
9:52 PM 60.1 °F 55.9 °F 86% 29.68 in 10.0 mi Calm Calm - N/A   Overcast
10:22 PM 59.0 °F 55.4 °F 88% 29.68 in 10.0 mi Calm Calm - N/A   Scattered Clouds
10:30 PM 59.0 °F 55.4 °F 88% 29.68 in 10.0 mi West 3.5 mph - N/A   Mostly Cloudy
10:39 PM 59.0 °F 53.6 °F 82% 29.68 in 10.0 mi WSW 3.5 mph - N/A   Overcast
10:52 PM 59.0 °F 54.0 °F 83% 29.69 in 10.0 mi West 4.6 mph - N/A   Overcast
11:34 PM 57.2 °F 51.8 °F 82% 29.69 in 10.0 mi Calm Calm - 0.00 in   Overcast
11:52 PM 57.0 °F 52.0 °F 83% 29.70 in 10.0 mi Calm Calm - 0.00 in   Overcast